When you browse on this site, cookies collect data to enhance your experience and personalize the content and advertising you see.
Visit our Privacy Policy to learn more. By continuing to use the site, you agree to this use of cookies and data.
  • In Hungary
  • List of Countries
  • For 7 days
  • Water Temperature
  • Satellite Maps
  • Weather Map
  • News
  • Weather Widgets
  • user-avatar
    Login

    Hourly Weather Moquegua

    Today, 19 January, Saturday

    Time Temperature Precipitation Wind Pressure Humidity
    00:00 +20°C° 0 mm 1 mps 643 mmHg 89%
    01:00 +20°C° 0 mm 1 mps 643 mmHg 89%
    02:00 +20°C° 0.1 mm 1 mps 643 mmHg 90%
    03:00 +20°C° 0.1 mm 1 mps 643 mmHg 90%
    04:00 +20°C° 0.1 mm 1 mps 643 mmHg 90%
    05:00 +20°C° 0.1 mm 1 mps 643 mmHg 88%
    06:00 +21°C° 0.1 mm 1 mps 643 mmHg 86%
    07:00 +21°C° 0.1 mm 1 mps 643 mmHg 84%
    08:00 +22°C° 0 mm 1 mps 644 mmHg 77%
    09:00 +23°C° 0 mm 2 mps 644 mmHg 70%
    10:00 +25°C° 0 mm 3 mps 644 mmHg 63%
    11:00 +25°C° 0 mm 3 mps 643 mmHg 60%
    12:00 +26°C° 0 mm 4 mps 643 mmHg 57%
    13:00 +27°C° 0 mm 4 mps 643 mmHg 54%
    14:00 +27°C° 0 mm 4 mps 643 mmHg 55%
    15:00 +26°C° 0 mm 4 mps 642 mmHg 57%
    16:00 +26°C° 0 mm 4 mps 642 mmHg 58%
    17:00 +25°C° 0 mm 3 mps 642 mmHg 63%
    18:00 +24°C° 0 mm 3 mps 642 mmHg 68%
    19:00 +23°C° 0 mm 2 mps 642 mmHg 73%
    20:00 +21°C° 0 mm 2 mps 643 mmHg 75%
    21:00 +22°C° 0 mm 1 mps 643 mmHg 76%
    22:00 +22°C° 0 mm 1 mps 644 mmHg 78%
    23:00 +22°C° 0 mm 1 mps 643 mmHg 79%

    Tomorrow, 20 January, Sunday

    Time Temperature Precipitation Wind Pressure Humidity
    00:00 +22°C° 0 mm 1 mps 643 mmHg 80%
    01:00 +22°C° 0 mm 1 mps 643 mmHg 81%
    02:00 +22°C° 0 mm 1 mps 643 mmHg 81%
    03:00 +20°C° 0 mm 0 mps 642 mmHg 82%
    04:00 +19°C° 0 mm 0 mps 642 mmHg 82%
    05:00 +20°C° 0.1 mm 0 mps 643 mmHg 78%
    06:00 +21°C° 0.1 mm 0 mps 643 mmHg 73%
    07:00 +21°C° 0.1 mm 0 mps 644 mmHg 68%
    08:00 +24°C° 0.1 mm 1 mps 644 mmHg 64%
    09:00 +25°C° 0.1 mm 2 mps 644 mmHg 59%
    10:00 +27°C° 0.1 mm 2 mps 645 mmHg 54%
    11:00 +27°C° 0.1 mm 3 mps 644 mmHg 53%
    12:00 +27°C° 0.1 mm 4 mps 644 mmHg 53%
    13:00 +28°C° 0.1 mm 4 mps 644 mmHg 52%
    14:00 +27°C° 0.2 mm 4 mps 643 mmHg 54%
    15:00 +27°C° 0.2 mm 4 mps 643 mmHg 56%
    16:00 +26°C° 0.2 mm 4 mps 643 mmHg 58%
    17:00 +25°C° 0.1 mm 3 mps 643 mmHg 63%
    18:00 +24°C° 0.1 mm 3 mps 643 mmHg 69%
    19:00 +23°C° 0.1 mm 2 mps 643 mmHg 74%
    20:00 +23°C° 0.1 mm 2 mps 643 mmHg 75%
    21:00 +23°C° 0.1 mm 1 mps 644 mmHg 77%
    22:00 +23°C° 0.1 mm 1 mps 644 mmHg 79%
    23:00 +23°C° 0.2 mm 1 mps 644 mmHg 80%

    Day after tomorrow, 21 January, Monday

    Time Temperature Precipitation Wind Pressure Humidity
    00:00 +22°C° 0.2 mm 1 mps 643 mmHg 80%
    01:00 +22°C° 0.2 mm 1 mps 643 mmHg 81%
    02:00 +22°C° 0.1 mm 1 mps 643 mmHg 82%
    03:00 +22°C° 0.1 mm 1 mps 643 mmHg 82%
    04:00 +22°C° 0.1 mm 1 mps 642 mmHg 82%
    05:00 +22°C° 0 mm 1 mps 643 mmHg 81%
    06:00 +22°C° 0 mm 1 mps 643 mmHg 80%
    07:00 +22°C° 0 mm 1 mps 644 mmHg 79%
    08:00 +24°C° 0 mm 2 mps 644 mmHg 74%
    09:00 +25°C° 0 mm 2 mps 644 mmHg 69%
    10:00 +26°C° 0 mm 3 mps 644 mmHg 64%
    11:00 +26°C° 0 mm 4 mps 644 mmHg 64%
    12:00 +26°C° 0 mm 4 mps 644 mmHg 63%
    13:00 +26°C° 0 mm 5 mps 643 mmHg 63%
    14:00 +26°C° 0.3 mm 4 mps 643 mmHg 67%
    15:00 +25°C° 0.3 mm 4 mps 642 mmHg 70%
    16:00 +23°C° 0.3 mm 4 mps 642 mmHg 74%
    17:00 +22°C° 0.4 mm 3 mps 642 mmHg 78%
    18:00 +22°C° 0.4 mm 3 mps 642 mmHg 81%
    19:00 +21°C° 0.4 mm 3 mps 643 mmHg 85%
    20:00 +21°C° 0.1 mm 2 mps 643 mmHg 87%
    21:00 +21°C° 0.1 mm 2 mps 643 mmHg 88%
    22:00 +20°C° 0.1 mm 2 mps 644 mmHg 90%
    23:00 +20°C° 0 mm 2 mps 644 mmHg 90%

    22 January, Tuesday

    Time Temperature Precipitation Wind Pressure Humidity
    00:00 +21°C° 0 mm 1 mps 643 mmHg 90%
    01:00 +21°C° 0 mm 1 mps 643 mmHg 90%
    02:00 +21°C° 0 mm 1 mps 643 mmHg 90%
    03:00 +21°C° 0 mm 1 mps 643 mmHg 90%
    04:00 +21°C° 0 mm 1 mps 643 mmHg 91%
    05:00 +21°C° 0 mm 1 mps 643 mmHg 88%
    06:00 +22°C° 0 mm 1 mps 644 mmHg 85%
    07:00 +22°C° 0 mm 1 mps 644 mmHg 82%
    08:00 +23°C° 0 mm 1 mps 644 mmHg 76%
    09:00 +25°C° 0 mm 2 mps 644 mmHg 69%
    10:00 +26°C° 0 mm 3 mps 644 mmHg 63%
    11:00 +26°C° 0 mm 4 mps 644 mmHg 62%
    12:00 +26°C° 0 mm 4 mps 643 mmHg 61%
    13:00 +27°C° 0 mm 5 mps 643 mmHg 60%
    14:00 +26°C° 0.3 mm 4 mps 642 mmHg 62%
    15:00 +25°C° 0.3 mm 4 mps 642 mmHg 65%
    16:00 +23°C° 0.3 mm 4 mps 641 mmHg 68%
    17:00 +24°C° 0.9 mm 3 mps 642 mmHg 72%
    18:00 +22°C° 0.9 mm 3 mps 642 mmHg 77%
    19:00 +21°C° 0.9 mm 2 mps 642 mmHg 81%
    20:00 +21°C° 1.3 mm 2 mps 643 mmHg 83%
    21:00 +21°C° 1.3 mm 2 mps 643 mmHg 85%
    22:00 +20°C° 1.3 mm 2 mps 644 mmHg 87%
    23:00 +20°C° 0.3 mm 2 mps 643 mmHg 88%

    23 January, Wednesday

    Time Temperature Precipitation Wind Pressure Humidity
    00:00 +20°C° 0.3 mm 2 mps 643 mmHg 89%
    01:00 +20°C° 0.3 mm 2 mps 643 mmHg 90%
    02:00 +21°C° 0 mm 1 mps 643 mmHg 89%
    03:00 +21°C° 0 mm 1 mps 642 mmHg 89%
    04:00 +21°C° 0 mm 1 mps 642 mmHg 88%
    05:00 +21°C° 0 mm 1 mps 643 mmHg 86%
    06:00 +22°C° 0 mm 1 mps 643 mmHg 84%
    07:00 +22°C° 0 mm 1 mps 643 mmHg 83%
    08:00 +23°C° 0 mm 1 mps 643 mmHg 77%
    09:00 +24°C° 0 mm 2 mps 643 mmHg 72%
    10:00 +25°C° 0 mm 3 mps 643 mmHg 66%
    11:00 +26°C° 0 mm 3 mps 643 mmHg 64%
    12:00 +26°C° 0 mm 4 mps 643 mmHg 61%
    13:00 +27°C° 0 mm 4 mps 642 mmHg 59%
    14:00 +26°C° 0.2 mm 4 mps 642 mmHg 60%
    15:00 +26°C° 0.2 mm 4 mps 642 mmHg 61%
    16:00 +25°C° 0.2 mm 4 mps 641 mmHg 63%
    17:00 +25°C° 0.6 mm 3 mps 642 mmHg 66%
    18:00 +24°C° 0.6 mm 3 mps 642 mmHg 70%
    19:00 +23°C° 0.6 mm 2 mps 642 mmHg 74%
    20:00 +23°C° 0.7 mm 2 mps 642 mmHg 75%
    21:00 +23°C° 0.7 mm 1 mps 643 mmHg 77%
    22:00 +22°C° 0.7 mm 1 mps 643 mmHg 79%
    23:00 +22°C° 0 mm 1 mps 643 mmHg 81%

    24 January, Thursday

    Time Temperature Precipitation Wind Pressure Humidity
    00:00 +22°C° 0 mm 1 mps 643 mmHg 84%
    01:00 +22°C° 0 mm 1 mps 642 mmHg 86%
    02:00 +21°C° 0 mm 2 mps 642 mmHg 87%
    03:00 +20°C° 0 mm 2 mps 642 mmHg 88%
    04:00 +20°C° 0 mm 2 mps 642 mmHg 89%
    05:00 +20°C° 0 mm 2 mps 642 mmHg 88%
    06:00 +22°C° 0 mm 1 mps 643 mmHg 87%
    07:00 +22°C° 0 mm 1 mps 643 mmHg 86%
    08:00 +23°C° 0 mm 2 mps 643 mmHg 82%
    09:00 +23°C° 0 mm 2 mps 643 mmHg 78%
    10:00 +24°C° 0 mm 2 mps 643 mmHg 75%
    11:00 +25°C° 0.1 mm 3 mps 643 mmHg 72%
    12:00 +25°C° 0.1 mm 3 mps 643 mmHg 70%
    13:00 +26°C° 0.1 mm 4 mps 642 mmHg 68%
    14:00 +25°C° 0.3 mm 4 mps 642 mmHg 70%
    15:00 +25°C° 0.3 mm 4 mps 642 mmHg 72%
    16:00 +23°C° 0.3 mm 4 mps 642 mmHg 74%
    17:00 +24°C° 0.9 mm 3 mps 642 mmHg 77%
    18:00 +22°C° 0.9 mm 3 mps 642 mmHg 80%
    19:00 +21°C° 0.9 mm 3 mps 643 mmHg 82%
    20:00 +21°C° 1.5 mm 2 mps 643 mmHg 83%
    21:00 +22°C° 1.5 mm 1 mps 644 mmHg 84%
    22:00 +22°C° 1.5 mm 1 mps 644 mmHg 85%
    23:00 +21°C° 0.8 mm 1 mps 644 mmHg 87%
    Show more